Volver al catálogo

COSMOS 886 DEB

ActivoLEO
NORAD 9724·DEBRIS·🇷🇺 Russia

Lanzado Dec 27, 1976 desde Baikonur Cosmodrome

Loading…

Próximos Pases (próximas 24 horas)

TLE

ActualizadoSource: Space-Track

Época: Sep 14, 2026, 00:52 UTC

1 09724U 76126V   26257.03672960  .00000600  00000-0  29607-3 0  9992
2 09724  65.8186 276.7648 0762795 121.6719 246.1026 13.27504349349387

Sigue COSMOS 886 DEB en tiempo real con AllMySat

Download on the App Store